Theta_e
325 315 310 309 296 292 289 295 300 302 305 316 323 323 320 323 323 317 339 348 355 356 360 360 364 363 361 360 360 360 359 359 359 359 359 360 361 362 362 363 362 360 358 354 355 355 354 354 354
323 313 307 298 291 287 290 295 300 301 306 313 326 326 323 320 329 337 341 351 355 357 359 360 363 363 361 359 359 359 359 358 359 359 359 360 361 361 361 361 361 360 357 354 355 356 356 354 353
314 311 300 294 288 289 290 297 301 303 306 308 326 331 327 325 334 340 347 352 355 356 358 359 363 362 361 360 359 359 359 358 358 359 359 360 361 361 361 361 360 358 357 354 355 357 356 355 354
306 303 299 290 288 293 298 299 301 302 306 307 323 325 333 339 337 342 351 354 354 355 357 361 363 362 361 361 360 359 359 359 358 359 359 360 360 360 359 359 358 358 356 354 355 356 356 355 354
304 298 291 287 289 293 296 301 300 300 302 306 311 322 325 340 344 349 350 353 353 354 356 359 362 361 362 361 360 359 358 358 358 359 359 359 359 359 358 358 358 357 356 355 355 355 356 356 355
299 295 286 288 289 298 297 301 301 301 303 306 305 311 324 345 345 347 350 350 354 353 356 358 361 361 361 361 360 358 357 358 358 359 358 359 359 358 359 358 359 358 357 356 355 356 356 354 352
295 290 287 286 291 296 298 301 301 301 302 303 312 316 328 341 345 347 348 350 352 356 355 357 358 359 361 360 359 358 357 357 358 358 358 358 358 358 359 359 359 358 358 357 356 356 354 354 354
296 292 288 290 293 293 299 302 302 303 305 310 325 321 324 340 346 345 346 348 351 354 354 354 356 356 355 356 359 358 358 357 357 358 358 357 357 358 358 357 358 357 357 357 357 356 355 354 353
298 288 286 290 293 294 299 297 303 308 305 307 310 328 335 346 345 342 345 345 347 351 352 353 353 355 354 353 356 358 358 358 357 357 358 356 350 351 353 354 358 357 357 357 356 355 354 353 353
296 287 289 294 299 296 299 299 301 303 303 303 308 333 345 345 341 340 340 340 343 346 348 350 351 352 353 354 353 352 352 352 352 352 352 350 347 347 351 351 356 357 357 357 356 355 354 353 344
297 293 296 295 298 298 300 301 302 300 298 303 302 323 342 342 340 341 340 340 340 345 347 349 349 350 350 351 352 351 352 352 350 350 348 344 345 347 347 344 349 347 353 347 350 348 346 343 341
294 299 300 297 300 298 298 301 301 301 303 306 305 309 340 339 339 340 339 340 342 343 345 348 349 349 349 350 350 348 349 348 348 349 345 342 338 339 340 340 341 342 343 341 341 340 340 339 339
294 297 301 301 301 300 302 301 301 302 306 306 306 307 335 338 338 341 341 342 342 341 345 347 348 347 349 347 348 348 348 347 347 347 345 341 335 337 336 337 337 339 339 340 338 337 337 337 336
296 297 299 301 300 300 300 301 300 305 307 304 303 303 323 336 336 339 340 340 340 341 343 346 347 349 349 347 346 347 348 347 346 346 345 340 336 334 335 333 336 337 339 340 339 336 335 333 333
296 293 296 296 297 297 300 296 298 304 306 302 301 303 307 332 334 338 340 340 340 340 342 344 345 347 348 347 347 348 347 347 345 344 344 343 337 334 334 333 334 337 339 338 338 336 333 332 332
294 293 288 295 298 299 299 293 302 304 304 302 302 301 303 310 330 334 341 340 341 339 339 341 344 343 346 346 346 346 346 344 344 344 344 345 340 335 333 334 333 336 337 337 335 334 333 333 333
290 286 289 294 298 298 297 295 300 304 303 302 303 301 302 302 313 326 334 339 339 337 337 337 340 339 343 342 343 342 342 342 343 343 343 344 343 338 334 334 335 335 334 334 334 333 332 332 334
286 288 290 291 296 298 296 296 299 300 302 301 302 305 302 301 306 316 329 337 337 336 337 337 337 337 341 340 338 336 337 338 339 339 340 341 343 341 335 332 333 336 334 333 337 338 339 337 337
293 291 290 294 298 295 295 296 298 299 300 300 301 300 302 302 304 308 317 331 337 336 337 336 336 336 339 337 334 335 336 337 337 338 338 340 341 341 339 337 336 336 340 341 341 340 339 337 338
291 289 289 294 298 296 295 294 298 299 299 300 300 300 300 300 301 303 306 326 335 334 336 336 336 336 339 339 338 337 338 338 338 340 340 340 340 340 340 339 342 343 343 343 340 338 339 338 339
290 289 289 289 294 295 293 290 293 297 299 301 301 302 302 302 302 302 304 326 333 334 335 336 336 336 340 343 342 340 340 343 340 341 342 343 341 341 340 341 341 344 347 345 344 342 337 333 332
288 294 294 294 290 284 291 282 289 292 295 297 300 300 302 303 302 304 303 323 332 334 337 337 337 337 338 342 344 342 339 338 342 342 344 347 344 343 344 344 345 348 348 344 341 340 336 331 327
291 298 296 294 291 288 289 283 287 292 291 294 297 300 301 302 302 303 302 313 333 335 336 338 338 338 339 341 344 344 342 341 340 345 345 347 347 347 349 348 347 344 344 342 341 336 333 331 331
299 295 293 292 290 284 288 286 287 291 292 295 298 300 302 302 302 303 304 304 324 335 337 338 338 337 340 342 342 342 341 342 342 344 344 344 346 348 348 346 346 344 342 341 339 337 334 333 332
293 288 278 281 282 281 290 286 289 294 296 296 297 298 300 302 301 301 301 301 305 331 334 336 336 335 340 342 344 343 342 343 343 343 344 343 343 343 344 344 342 341 339 337 336 334 332 331 330
289 289 280 277 278 280 289 285 289 297 300 301 301 299 300 301 301 300 302 303 305 328 334 335 335 335 338 341 343 345 344 345 344 346 345 344 341 339 339 339 338 337 336 334 333 331 331 330 329
289 286 291 285 286 281 285 289 294 297 297 298 297 299 298 300 302 302 301 302 305 319 337 337 336 336 338 340 343 344 343 341 341 341 342 341 340 339 337 337 335 332 331 329 326 321 318 318 318
294 294 284 283 275 277 281 284 286 290 292 298 299 300 303 306 307 304 301 301 303 314 337 341 340 339 342 344 346 342 339 341 341 341 339 338 337 335 333 330 324 319 318 315 313 310 309 308 308
288 287 287 285 282 278 277 281 290 291 297 298 300 303 303 304 308 310 304 302 303 311 327 342 342 343 345 348 343 340 339 339 339 338 336 334 333 331 324 318 313 311 311 308 305 304 304 303 302
294 290 288 280 279 284 281 282 299 299 300 302 302 304 304 305 315 313 308 302 300 312 321 336 344 344 345 343 340 337 337 335 334 332 332 332 324 319 313 311 308 307 305 303 303 302 302 301 300
Wind_Speed
6 6 1 4 4 5 4 8 4 6 7 1 2 5 8 3 7 5 6 14 23 19 14 15 17 18 17 18 19 20 21 20 20 20 20 20 19 18 17 16 15 15 15 14 13 13 13 12 12
4 3 4 3 5 1 7 5 9 3 6 8 2 2 5 3 3 8 15 15 24 21 17 14 18 19 19 18 19 19 19 19 19 19 19 18 18 17 16 15 15 16 15 14 13 12 12 12 11
2 1 4 4 5 9 8 5 7 3 6 6 3 1 3 4 3 13 10 22 18 19 17 16 20 20 20 20 19 19 18 18 18 18 17 16 16 15 14 14 14 15 15 14 13 12 11 11 11
2 4 4 4 11 9 14 7 2 3 8 3 3 3 6 4 9 11 20 22 21 16 17 20 20 21 20 20 19 19 18 17 17 17 16 15 15 14 13 13 13 13 14 13 12 11 10 10 9
4 3 2 4 9 8 5 6 3 5 1 8 9 7 4 7 11 18 22 20 21 17 14 18 21 21 21 20 20 19 18 17 16 16 15 15 14 13 13 13 13 13 12 13 11 10 7 7 7
3 3 1 8 8 12 4 8 3 4 6 8 5 4 6 6 13 17 19 19 17 18 14 15 21 21 20 20 20 19 18 17 16 16 15 14 13 12 12 12 11 11 10 9 10 8 6 6 5
6 4 6 5 6 14 4 6 6 4 7 6 7 8 0 3 7 16 13 14 17 16 15 13 14 17 21 19 19 19 18 17 17 16 15 14 12 11 11 10 10 9 8 8 8 6 6 5 3
5 5 4 7 8 12 2 6 3 5 6 3 4 5 7 8 16 15 13 11 12 13 13 14 12 12 12 13 20 20 19 18 17 16 15 13 12 11 10 9 9 10 9 9 8 7 5 4 3
5 1 7 9 11 5 2 2 4 4 3 6 5 8 3 20 19 16 15 11 10 10 12 13 14 11 9 10 13 17 20 18 16 14 14 10 4 5 7 8 10 10 9 8 7 6 6 6 7
5 6 13 9 17 7 4 2 5 6 9 5 8 6 18 21 16 19 22 19 18 17 14 13 15 13 10 8 8 7 9 7 6 6 7 4 5 4 6 8 9 9 8 7 7 8 8 7 3
7 13 11 2 8 5 9 9 4 4 7 5 4 6 16 21 18 14 15 17 15 17 14 15 15 15 14 9 6 5 3 5 4 7 6 5 4 4 3 2 2 3 7 3 5 4 4 5 3
5 10 15 3 6 3 4 4 6 8 17 7 10 6 13 18 20 19 17 19 18 16 14 16 15 16 15 8 7 9 8 7 6 6 6 5 3 4 4 3 4 4 3 4 4 3 3 4 5
7 4 5 11 11 10 9 15 8 23 20 7 14 6 15 15 17 16 11 11 14 18 16 18 17 16 13 10 9 10 10 8 7 6 6 5 4 5 4 4 3 3 3 4 4 4 4 5 5
4 7 14 10 9 6 11 7 6 28 10 9 11 11 11 18 17 12 12 16 17 18 21 21 20 18 16 14 14 11 10 10 7 6 7 7 5 5 4 4 4 4 4 4 4 4 4 5 4
4 8 11 7 5 8 9 12 26 17 13 7 10 10 9 14 14 17 19 19 20 18 17 19 17 16 19 18 14 12 9 8 8 7 7 9 7 7 6 5 4 5 4 5 4 4 3 4 3
4 4 1 5 8 8 8 27 26 9 7 10 10 10 9 9 9 17 17 17 14 12 17 16 15 16 14 13 12 10 10 9 8 7 8 11 10 7 6 5 5 5 4 4 3 3 4 4 4
0 5 4 7 0 3 14 25 5 8 9 9 8 8 10 8 7 6 11 15 16 16 16 16 16 17 14 10 10 10 12 10 9 9 8 10 10 9 7 5 4 5 4 4 3 4 4 3 4
5 6 5 7 5 8 16 25 8 3 7 10 9 9 10 8 11 11 13 12 14 14 16 17 14 17 15 10 7 4 4 5 6 7 8 11 9 9 8 5 5 4 3 3 3 4 3 2 3
8 13 14 11 7 7 15 21 12 6 9 9 10 9 9 10 10 9 13 14 18 19 19 18 16 15 13 10 10 8 8 8 6 6 9 11 8 8 8 5 5 5 5 6 6 3 4 2 1
11 13 16 15 15 14 20 28 16 12 13 8 10 10 11 9 6 8 8 12 16 18 18 17 17 15 14 11 9 6 8 6 6 5 7 8 10 10 9 7 5 6 5 6 4 2 1 0 1
14 14 13 11 12 12 16 25 15 9 11 12 8 9 10 15 14 10 12 14 15 17 17 18 18 17 16 13 7 3 5 4 4 4 4 7 10 10 9 7 6 6 3 3 2 4 4 2 1
13 11 9 11 4 6 5 17 10 6 13 11 14 10 13 14 9 12 14 16 17 19 18 18 19 18 16 13 13 14 13 10 9 8 8 7 9 9 8 8 7 5 3 2 1 2 2 1 2
15 5 4 8 6 3 4 5 4 7 7 9 10 11 10 12 11 14 11 18 19 17 18 18 19 17 18 17 17 14 12 4 4 4 10 7 7 7 9 9 8 7 5 5 5 4 4 2 1
2 4 1 1 4 7 12 7 9 10 10 7 6 9 10 9 10 10 12 12 17 17 16 16 19 19 18 17 16 17 13 11 6 6 7 6 5 6 8 7 6 5 3 4 4 2 3 4 3
5 5 2 3 7 7 9 8 17 9 9 11 11 10 10 9 8 9 10 11 10 17 18 17 18 19 18 18 16 15 13 12 12 8 6 9 6 4 7 6 6 7 4 5 5 5 3 3 4
10 13 6 7 4 3 2 6 15 16 14 14 13 11 10 8 8 9 12 14 15 17 19 20 20 18 17 17 15 11 12 7 5 7 7 6 5 8 9 9 4 7 5 4 5 4 4 5 4
5 9 10 4 2 1 5 8 19 6 11 7 11 10 8 8 8 10 9 10 13 13 19 21 19 20 19 17 12 8 7 8 7 8 6 5 11 10 14 11 6 4 6 6 7 5 6 7 6
5 5 4 2 5 5 5 6 15 3 2 3 4 7 7 7 9 9 7 9 8 11 16 18 19 20 17 15 13 11 10 9 9 8 9 10 11 13 12 15 10 10 8 8 8 5 5 9 5
1 1 3 3 4 5 2 9 5 8 4 4 6 7 9 8 11 11 9 8 11 10 12 16 17 16 14 13 12 14 12 11 9 13 12 9 12 15 11 13 12 11 10 8 9 6 7 7 6
2 0 4 4 3 4 3 12 5 6 5 5 7 8 8 7 13 13 11 10 8 9 10 14 14 17 15 16 14 15 15 13 12 13 14 13 14 12 13 12 13 12 10 7 8 7 5 6 6
Wind_Direction
317 305 141 42 47 63 256 254 261 295 349 339 179 158 223 241 169 214 132 143 137 144 154 152 145 134 130 128 125 123 122 125 128 129 129 131 133 136 137 135 135 139 139 138 136 134 132 131 129
320 333 40 84 106 158 262 229 244 226 252 299 233 355 283 255 89 111 130 150 145 142 151 152 148 137 135 132 129 126 127 130 129 129 131 133 134 137 138 136 138 142 143 143 142 141 138 133 129
300 28 94 140 165 209 233 206 224 233 304 282 307 250 252 226 117 155 133 147 141 143 148 156 152 142 140 138 136 134 134 134 133 135 136 136 138 139 141 141 142 145 147 148 148 147 141 135 131
80 15 28 130 219 243 223 225 276 343 321 289 235 235 297 221 149 164 138 144 140 149 149 154 153 145 144 143 142 141 140 139 139 142 141 142 143 144 145 145 147 151 151 152 153 153 148 139 133
42 57 147 227 250 256 224 238 268 284 70 280 320 279 251 344 117 135 145 152 148 148 153 149 154 148 147 146 146 147 145 144 146 149 149 151 151 150 149 152 155 154 154 155 156 158 152 137 130
60 98 122 222 244 250 278 211 247 228 179 272 283 271 260 104 128 146 151 153 152 144 150 152 154 151 151 151 150 152 152 151 154 156 158 159 159 157 155 156 154 154 153 155 158 157 150 139 132
140 119 215 218 248 260 249 172 228 263 256 193 241 243 219 157 137 138 148 144 145 144 148 153 154 156 154 154 154 156 158 158 160 162 163 164 163 162 159 156 152 151 152 155 157 161 162 159 176
131 125 221 223 214 259 196 186 289 212 281 302 162 234 234 174 146 135 134 133 140 144 151 152 156 154 156 160 162 163 165 164 166 168 168 168 166 165 162 153 153 158 165 167 169 175 185 196 236
128 122 230 215 195 225 184 131 304 308 236 340 265 233 187 137 137 138 130 136 147 152 151 153 162 160 156 160 171 167 169 168 170 172 170 161 147 158 166 168 173 176 177 178 181 188 203 226 243
160 178 221 201 217 204 180 111 346 322 318 298 310 345 133 142 156 158 160 164 165 164 159 156 164 167 163 163 166 162 170 164 164 166 161 147 153 159 176 184 186 188 191 193 197 205 214 226 244
194 233 248 235 240 241 265 277 220 295 294 199 343 324 157 158 157 173 179 176 174 160 159 161 164 168 171 169 164 164 159 160 157 162 157 155 162 180 168 164 189 196 206 206 215 223 225 227 233
235 237 241 239 202 237 252 282 273 238 249 286 270 319 186 173 167 179 185 177 168 172 165 161 162 168 173 166 172 174 179 177 180 183 158 159 162 174 185 187 197 194 202 215 222 235 259 264 259
241 263 234 242 242 252 273 264 274 270 256 253 285 258 199 203 191 183 178 158 157 171 171 171 166 169 166 156 167 177 184 183 183 177 173 162 169 191 182 200 197 209 197 211 220 233 240 247 254
241 230 259 265 254 244 254 265 216 256 260 212 227 229 224 201 194 183 168 170 180 177 178 174 175 170 163 167 169 179 184 186 179 178 182 173 168 180 185 198 209 212 207 216 216 219 236 253 241
279 289 293 234 208 234 197 252 235 249 297 223 221 245 219 212 191 191 187 183 182 189 175 182 178 175 171 172 171 175 179 174 178 183 175 181 183 187 184 190 202 218 213 216 216 238 238 260 249
288 255 231 296 191 214 161 258 248 166 223 244 229 235 217 223 205 198 192 192 185 174 183 179 180 181 183 177 172 175 177 175 181 182 186 192 191 182 184 193 205 214 211 212 217 227 253 252 245
272 271 283 315 354 307 197 259 259 185 218 242 236 221 237 197 198 206 184 188 182 181 175 181 184 180 178 179 179 180 180 182 185 181 184 195 192 190 189 193 208 207 214 213 218 237 205 242 253
246 254 231 246 284 234 252 261 291 318 253 249 234 233 228 200 206 191 175 175 181 178 182 184 182 178 176 172 170 161 158 190 190 188 187 180 193 194 183 185 207 197 210 225 228 223 222 227 227
254 265 266 261 286 323 275 282 289 270 250 250 237 233 221 232 209 180 178 185 185 183 180 186 182 183 173 174 173 178 187 183 189 189 192 178 179 185 183 185 191 178 201 204 196 179 195 244 193
239 251 262 272 264 257 272 277 275 260 257 234 224 235 222 231 204 179 189 188 187 188 188 183 182 179 183 180 180 184 176 193 182 195 194 179 179 181 180 176 176 185 212 210 196 148 151 267 164
237 243 253 253 264 256 273 277 268 252 259 247 231 219 230 221 217 190 183 185 192 191 186 186 182 185 184 179 162 117 119 104 140 179 201 193 187 186 170 157 180 220 191 190 195 170 174 205 91
246 237 263 292 238 246 154 278 260 241 242 229 241 217 227 226 229 220 174 181 190 197 191 187 186 183 185 171 170 180 183 183 197 197 198 187 185 179 168 163 175 198 160 225 214 179 149 125 238
257 136 239 285 302 280 261 272 271 179 244 248 235 241 222 226 202 212 193 186 189 192 192 192 190 187 185 182 182 186 190 159 141 144 165 167 176 159 160 162 167 144 159 154 161 173 244 234 232
145 227 295 240 236 229 231 192 263 236 203 245 253 242 231 226 229 207 210 184 194 188 191 192 189 191 191 187 187 192 184 168 154 161 164 154 151 157 167 143 133 113 119 135 144 180 168 172 138
164 115 279 246 210 231 225 213 248 289 258 227 242 259 252 244 231 214 186 198 174 189 190 189 192 196 188 190 189 188 189 178 179 172 153 147 155 153 152 128 116 111 161 118 124 119 118 131 124
192 195 183 213 225 277 227 213 258 218 252 241 249 251 263 265 243 218 203 194 196 186 183 187 191 192 189 186 190 184 183 171 147 154 157 168 121 103 92 90 98 100 109 120 104 116 97 89 92
191 193 221 197 195 295 205 264 281 201 251 230 244 254 264 274 265 248 219 206 199 179 180 185 191 193 188 187 176 156 160 126 141 139 138 109 116 124 128 116 100 91 97 79 67 66 81 78 69
197 175 114 282 178 220 241 230 235 357 284 205 318 294 298 298 294 286 250 210 207 200 184 183 185 188 186 180 166 156 139 135 136 124 129 132 109 107 89 111 118 97 80 88 83 71 64 79 55
189 179 74 122 136 211 241 253 218 209 224 270 276 271 281 279 271 262 263 228 202 197 182 187 181 174 170 162 151 138 140 129 132 113 112 111 101 107 118 97 103 94 91 75 87 74 64 76 71
110 165 167 139 192 235 260 254 181 165 202 219 274 277 286 270 288 245 230 227 193 176 171 178 178 165 160 152 140 137 123 120 114 110 114 111 98 97 102 100 95 90 81 69 75 78 69 71 62